STARLINK-32844 (62820 NORAD) Tracking and Keplerian Element Data

This shows tracking and keplerian element data for the satellite.

Feedback or suggestion? Click here.




ElementValue
Catalog62820
NameSTARLINK-32844
Epoch Orbit289
Epoch Day34.83335648
Epoch Year2025
RAAN13.577
Inclination53.147
Eccentricity0.0001112
Argument of Perigee114.9662
Mean Anonmoly214.2559
Mean Motion15.86893294
Decay Rate-0.01005961
L11 62820U 25018Q 25034.83335648 -.01005961 00000+0 -42831-2 0 9991
L22 62820 53.1470 13.5770 0001112 114.9662 214.2559 15.86893294 2899



Live tracking and technical data element details for STARLINK-32844 (NORAD 62820). STARLINK-32844 can be tracked NOW for your location showing map with azimuth and elevation plus other details from your city location.







IsCatalogInMostPopularTable: catalog: 62820, numindb: 5
Update: records affected: 1



GetName: 62820 STARLINK-32844

Hit Count: updated at: Fri, 14 Feb 2025 15:17:33 GMT